| time (UTC) | temp F | wind direction | speed MPH | gust MPH | rain 1hr in | rain 24hr in | rain mn in | humidity % | barometer mb |
| 20260831010023 | 75 | 323 | 7.0 | 12.0 | 0.00 | 0.00 | 0.00 | 48 | |
| 20260831005030 | 75 | 7 | 6.0 | 9.0 | 0.00 | 0.00 | 0.00 | 47 | |
| 20260831004020 | 75 | 287 | 5.0 | 13.0 | 0.00 | 0.00 | 0.00 | 47 | |
| 20260831003027 | 75 | 337 | 7.0 | 10.0 | 0.00 | 0.00 | 0.00 | 47 | |
| 20260831002038 | 76 | 314 | 7.0 | 11.0 | 0.00 | 0.00 | 0.00 | 47 | |
| 20260831001046 | 75 | 302 | 6.0 | 10.0 | 0.00 | 0.00 | 0.00 | 47 | |
| 20260831000035 | 75 | 309 | 6.0 | 11.0 | 0.00 | 0.00 | 0.00 | 47 | |
| 20260830235042 | 76 | 274 | 6.0 | 9.0 | 0.00 | 0.00 | 0.00 | 46 | |
| 20260830234030 | 76 | 340 | 5.0 | 9.0 | 0.00 | 0.00 | 0.00 | 45 | |
| 20260830233020 | 76 | 260 | 5.0 | 9.0 | 0.00 | 0.00 | 0.00 | 45 | |
| 20260830232027 | 76 | 297 | 5.0 | 10.0 | 0.00 | 0.00 | 0.00 | 45 | |
| 20260830231035 | 75 | 27 | 9.0 | 13.0 | 0.00 | 0.00 | 0.00 | 45 | |
| 20260830230026 | 75 | 323 | 7.0 | 11.0 | 0.00 | 0.00 | 0.00 | 46 | |
| 20260830225032 | 75 | 276 | 4.0 | 7.0 | 0.00 | 0.00 | 0.00 | 45 | |
| 20260830224021 | 76 | 13 | 7.0 | 11.0 | 0.00 | 0.00 | 0.00 | 43 | |
| 20260830223029 | 76 | 333 | 6.0 | 8.0 | 0.00 | 0.00 | 0.00 | 43 | |
| 20260830222037 | 76 | 250 | 5.0 | 9.0 | 0.00 | 0.00 | 0.00 | 44 | |
| 20260830221045 | 75 | 2 | 6.0 | 11.0 | 0.00 | 0.00 | 0.00 | 44 | |
| 20260830220053 | 75 | 251 | 7.0 | 11.0 | 0.00 | 0.00 | 0.00 | 44 | |
| 20260830215027 | 75 | 283 | 5.0 | 8.0 | 0.00 | 0.00 | 0.00 | 44 | |
| 20260830214031 | 75 | 276 | 6.0 | 9.0 | 0.00 | 0.00 | 0.00 | 45 | |
| 20260830213020 | 74 | 345 | 5.0 | 8.0 | 0.00 | 0.00 | 0.00 | 45 | |
| 20260830212033 | 74 | 319 | 7.0 | 10.0 | 0.00 | 0.00 | 0.00 | 46 | |
| 20260830211036 | 74 | 31 | 5.0 | 9.0 | 0.00 | 0.00 | 0.00 | 45 | |
| 20260830210027 | 74 | 302 | 8.0 | 10.0 | 0.00 | 0.00 | 0.00 | 45 | |
| 20260830205033 | 74 | 274 | 5.0 | 9.0 | 0.00 | 0.00 | 0.00 | 45 | |
| 20260830204022 | 74 | 279 | 6.0 | 9.0 | 0.00 | 0.00 | 0.00 | 46 | |
| 20260830203049 | 73 | 254 | 5.0 | 9.0 | 0.00 | 0.00 | 0.00 | 46 | |
| 20260830202020 | 72 | 255 | 8.0 | 13.0 | 0.00 | 0.00 | 0.00 | 48 | |
| 20260830201028 | 73 | 263 | 5.0 | 8.0 | 0.00 | 0.00 | 0.00 | 48 | |
| 20260830200036 | 72 | 260 | 6.0 | 9.0 | 0.00 | 0.00 | 0.00 | 49 | |
| 20260830195027 | 71 | 245 | 5.0 | 8.0 | 0.00 | 0.00 | 0.00 | 50 | |
| 20260830194033 | 71 | 348 | 6.0 | 12.0 | 0.00 | 0.00 | 0.00 | 50 | |
| 20260830193022 | 71 | 305 | 6.0 | 9.0 | 0.00 | 0.00 | 0.00 | 50 | |
| 20260830192030 | 70 | 252 | 5.0 | 9.0 | 0.00 | 0.00 | 0.00 | 52 | |
| 20260830191020 | 70 | 252 | 5.0 | 10.0 | 0.00 | 0.00 | 0.00 | 52 | |
| 20260830190027 | 70 | 274 | 5.0 | 7.0 | 0.00 | 0.00 | 0.00 | 52 | |
| 20260830185036 | 70 | 264 | 3.0 | 6.0 | 0.00 | 0.00 | 0.00 | 53 | |
| 20260830184025 | 69 | 342 | 6.0 | 10.0 | 0.00 | 0.00 | 0.00 | 53 | |
| 20260830183033 | 69 | 358 | 6.0 | 8.0 | 0.00 | 0.00 | 0.00 | 54 | |
| 20260830182024 | 68 | 16 | 5.0 | 7.0 | 0.00 | 0.00 | 0.00 | 54 | |
| 20260830181030 | 70 | 256 | 6.0 | 9.0 | 0.00 | 0.00 | 0.00 | 53 | |
| 20260830180020 | 69 | 347 | 4.0 | 7.0 | 0.00 | 0.00 | 0.00 | 56 | |
| 20260830175027 | 67 | 281 | 4.0 | 6.0 | 0.00 | 0.00 | 0.00 | 60 | |
| 20260830174036 | 67 | 264 | 5.0 | 6.0 | 0.00 | 0.00 | 0.00 | 61 | |
| 20260830173044 | 66 | 324 | 5.0 | 7.0 | 0.00 | 0.00 | 0.00 | 63 | |
| 20260830172053 | 67 | 278 | 3.0 | 5.0 | 0.00 | 0.00 | 0.00 | 63 | |
| 20260830171022 | 65 | 255 | 4.0 | 7.0 | 0.00 | 0.00 | 0.00 | 67 | |
| 20260830170030 | 64 | 253 | 4.0 | 6.0 | 0.00 | 0.00 | 0.00 | 67 | |
| 20260830165019 | 64 | 263 | 4.0 | 5.0 | 0.00 | 0.00 | 0.00 | 68 | |
| 20260830164027 | 64 | 261 | 4.0 | 6.0 | 0.00 | 0.00 | 0.00 | 68 | |
| 20260830163035 | 63 | 249 | 3.0 | 5.0 | 0.00 | 0.00 | 0.00 | 69 | |
| 20260830162024 | 63 | 263 | 3.0 | 6.0 | 0.00 | 0.00 | 0.00 | 70 | |
| 20260830161035 | 62 | 293 | 4.0 | 5.0 | 0.00 | 0.00 | 0.00 | 71 | |
| 20260830155029 | 62 | 43 | 2.0 | 4.0 | 0.00 | 0.00 | 0.00 | 71 | |
| 20260830154037 | 62 | 254 | 2.0 | 4.0 | 0.00 | 0.00 | 0.00 | 71 | |
| 20260830153026 | 61 | 229 | 2.0 | 3.0 | 0.00 | 0.00 | 0.00 | 73 | |
| 20260830152035 | 59 | 277 | 2.0 | 3.0 | 0.00 | 0.00 | 0.00 | 77 | |
| 20260830151027 | 58 | 232 | 1.0 | 3.0 | 0.00 | 0.00 | 0.00 | 80 | |
| 20260830150034 | 56 | 287 | 1.0 | 2.0 | 0.00 | 0.00 | 0.00 | 84 | |
| 20260830145021 | 55 | 268 | 2.0 | 3.0 | 0.00 | 0.00 | 0.00 | 87 | |
| 20260830144030 | 54 | 225 | 0.0 | 1.0 | 0.00 | 0.00 | 0.00 | 89 | |
| 20260830143019 | 53 | 229 | 0.0 | 2.0 | 0.00 | 0.00 | 0.00 | 92 | |
| 20260830142027 | 50 | 257 | 2.0 | 3.0 | 0.00 | 0.00 | 0.00 | 98 | |
| 20260830141035 | 49 | 245 | 2.0 | 2.0 | 0.00 | 0.00 | 0.00 | 99 | |
| 20260830140107 | 48 | 0.0 | 0.0 | 0.00 | 0.00 | 0.00 | 99 | ||
| 20260830135114 | 48 | 0.0 | 0.0 | 0.00 | 0.00 | 0.00 | 99 | ||
| 20260830134022 | 47 | 0.0 | 0.0 | 0.00 | 0.00 | 0.00 | 99 | ||
| 20260830133030 | 47 | 0.0 | 0.0 | 0.00 | 0.00 | 0.00 | 99 | ||
| 20260830132019 | 47 | 0.0 | 0.0 | 0.00 | 0.00 | 0.00 | 99 | ||
| 20260830131048 | 48 | 0.0 | 0.0 | 0.00 | 0.00 | 0.00 | 99 | ||
| 20260830130035 | 48 | 0.0 | 0.0 | 0.00 | 0.00 | 0.00 | 99 | ||
| 20260830125027 | 48 | 0.0 | 0.0 | 0.00 | 0.00 | 0.00 | 99 | ||
| 20260830124033 | 48 | 0.0 | 0.0 | 0.00 | 0.00 | 0.00 | 99 | ||
| 20260830123022 | 48 | 0.0 | 0.0 | 0.00 | 0.00 | 0.00 | 99 | ||
| 20260830122030 | 48 | 0.0 | 0.0 | 0.00 | 0.00 | 0.00 | 99 | ||
| 20260830121020 | 49 | 0.0 | 0.0 | 0.00 | 0.00 | 0.00 | 99 | ||
| 20260830120028 | 49 | 0.0 | 0.0 | 0.00 | 0.00 | 0.00 | 99 | ||
| 20260830115036 | 49 | 0.0 | 0.0 | 0.00 | 0.00 | 0.00 | 99 | ||
| 20260830114025 | 49 | 0.0 | 0.0 | 0.00 | 0.00 | 0.00 | 99 | ||
| 20260830113034 | 49 | 0.0 | 0.0 | 0.00 | 0.00 | 0.00 | 97 | ||
| 20260830112103 | 49 | 0.0 | 0.0 | 0.00 | 0.00 | 0.00 | 98 | ||
| 20260830111051 | 50 | 0.0 | 0.0 | 0.00 | 0.00 | 0.00 | 98 | ||
| 20260830110040 | 50 | 0.0 | 0.0 | 0.00 | 0.00 | 0.00 | 97 | ||
| 20260830105028 | 50 | 0.0 | 0.0 | 0.00 | 0.00 | 0.00 | 97 | ||
| 20260830104036 | 50 | 0.0 | 0.0 | 0.00 | 0.00 | 0.00 | 96 | ||
| 20260830103026 | 50 | 0.0 | 0.0 | 0.00 | 0.00 | 0.00 | 96 | ||
| 20260830102034 | 50 | 0.0 | 0.0 | 0.00 | 0.00 | 0.00 | 94 | ||
| 20260830101023 | 51 | 0.0 | 0.0 | 0.00 | 0.00 | 0.00 | 94 | ||
| 20260830100031 | 51 | 0.0 | 0.0 | 0.00 | 0.00 | 0.00 | 93 | ||
| 20260830095020 | 51 | 0.0 | 0.0 | 0.00 | 0.00 | 0.00 | 92 | ||
| 20260830094029 | 52 | 0.0 | 0.0 | 0.00 | 0.00 | 0.00 | 92 | ||
| 20260830093039 | 52 | 0.0 | 0.0 | 0.00 | 0.00 | 0.00 | 91 | ||
| 20260830092026 | 52 | 0.0 | 0.0 | 0.00 | 0.00 | 0.00 | 91 | ||
| 20260830091034 | 53 | 0.0 | 0.0 | 0.00 | 0.00 | 0.00 | 91 | ||
| 20260830090024 | 53 | 0.0 | 0.0 | 0.00 | 0.00 | 0.00 | 91 | ||
| 20260830085032 | 52 | 0.0 | 0.0 | 0.00 | 0.00 | 0.00 | 91 | ||
| 20260830084021 | 52 | 0.0 | 0.0 | 0.00 | 0.00 | 0.00 | 91 | ||
| 20260830083029 | 51 | 0.0 | 0.0 | 0.00 | 0.00 | 0.00 | 93 | ||
| 20260830082019 | 51 | 0.0 | 0.0 | 0.00 | 0.00 | 0.00 | 91 | ||
| 20260830081047 | 52 | 0.0 | 0.0 | 0.00 | 0.00 | 0.00 | 89 | ||
| 20260830080034 | 52 | 0.0 | 0.0 | 0.00 | 0.00 | 0.00 | 89 | ||
| 20260830075043 | 52 | 0.0 | 0.0 | 0.00 | 0.00 | 0.00 | 89 | ||
| 20260830074032 | 53 | 68 | 0.0 | 2.0 | 0.00 | 0.00 | 0.00 | 87 | |
| 20260830073021 | 53 | 82 | 1.0 | 2.0 | 0.00 | 0.00 | 0.00 | 87 | |
| 20260830072050 | 54 | 0.0 | 0.0 | 0.00 | 0.00 | 0.00 | 85 | ||
| 20260830071039 | 54 | 0.0 | 0.0 | 0.00 | 0.00 | 0.00 | 85 | ||
| 20260830070128 | 55 | 0.0 | 0.0 | 0.00 | 0.00 | 0.00 | 85 | ||
| 20260830065035 | 55 | 249 | 1.0 | 2.0 | 0.00 | 0.00 | 0.00 | 84 | |
| 20260830064025 | 56 | 0.0 | 0.0 | 0.00 | 0.00 | 0.00 | 82 | ||
| 20260830063053 | 57 | 225 | 0.0 | 3.0 | 0.00 | 0.00 | 0.00 | 81 | |
| 20260830062022 | 57 | 260 | 1.0 | 3.0 | 0.00 | 0.00 | 0.00 | 80 | |
| 20260830061030 | 58 | 269 | 3.0 | 4.0 | 0.00 | 0.00 | 0.00 | 79 | |
| 20260830060020 | 58 | 245 | 3.0 | 4.0 | 0.00 | 0.00 | 0.00 | 78 | |
| 20260830055027 | 59 | 228 | 4.0 | 5.0 | 0.00 | 0.00 | 0.00 | 77 | |
| 20260830054056 | 59 | 234 | 4.0 | 5.0 | 0.00 | 0.00 | 0.00 | 76 | |
| 20260830053025 | 59 | 244 | 4.0 | 6.0 | 0.00 | 0.00 | 0.00 | 75 | |
| 20260830052034 | 59 | 245 | 4.0 | 5.0 | 0.00 | 0.00 | 0.00 | 74 | |
| 20260830051022 | 60 | 229 | 5.0 | 7.0 | 0.00 | 0.00 | 0.00 | 73 | |
| 20260830050030 | 60 | 244 | 6.0 | 7.0 | 0.00 | 0.00 | 0.00 | 72 | |
| 20260830045020 | 60 | 229 | 5.0 | 7.0 | 0.00 | 0.00 | 0.00 | 70 | |
| 20260830044047 | 61 | 231 | 4.0 | 6.0 | 0.00 | 0.00 | 0.00 | 69 | |
| 20260830043035 | 61 | 219 | 5.0 | 7.0 | 0.00 | 0.00 | 0.00 | 68 | |
| 20260830042025 | 61 | 231 | 4.0 | 5.0 | 0.00 | 0.00 | 0.00 | 67 | |
| 20260830041035 | 62 | 238 | 4.0 | 6.0 | 0.00 | 0.00 | 0.00 | 66 | |
| 20260830040022 | 62 | 230 | 7.0 | 10.0 | 0.00 | 0.00 | 0.00 | 65 | |
| 20260830035049 | 63 | 215 | 5.0 | 8.0 | 0.00 | 0.00 | 0.00 | 63 | |
| 20260830034021 | 63 | 259 | 8.0 | 11.0 | 0.00 | 0.00 | 0.00 | 62 | |
| 20260830033027 | 64 | 222 | 7.0 | 10.0 | 0.00 | 0.00 | 0.00 | 60 | |
| 20260830032035 | 64 | 235 | 9.0 | 13.0 | 0.00 | 0.00 | 0.00 | 58 | |
| 20260830031047 | 65 | 232 | 5.0 | 9.0 | 0.00 | 0.00 | 0.00 | 55 | |
| 20260830030035 | 66 | 240 | 7.0 | 10.0 | 0.00 | 0.00 | 0.00 | 53 | |
| 20260830025102 | 67 | 224 | 7.0 | 10.0 | 0.00 | 0.00 | 0.00 | 52 | |
| 20260830024049 | 68 | 234 | 7.0 | 9.0 | 0.00 | 0.00 | 0.00 | 50 | |
| 20260830023037 | 68 | 229 | 6.0 | 9.0 | 0.00 | 0.00 | 0.00 | 50 | |
| 20260830022027 | 69 | 221 | 8.0 | 12.0 | 0.00 | 0.00 | 0.00 | 48 | |
| 20260830021035 | 69 | 215 | 10.0 | 12.0 | 0.00 | 0.00 | 0.00 | 47 | |
| 20260830020024 | 70 | 200 | 8.0 | 11.0 | 0.00 | 0.00 | 0.00 | 46 | |
| 20260830015031 | 70 | 220 | 8.0 | 11.0 | 0.00 | 0.00 | 0.00 | 46 | |
| 20260830014041 | 70 | 228 | 11.0 | 15.0 | 0.00 | 0.00 | 0.00 | 45 | |
| 20260830013028 | 71 | 230 | 11.0 | 15.0 | 0.00 | 0.00 | 0.00 | 44 | |
| 20260830012056 | 72 | 224 | 10.0 | 16.0 | 0.00 | 0.00 | 0.00 | 45 | |
| 20260830011027 | 72 | 255 | 8.0 | 12.0 | 0.00 | 0.00 | 0.00 | 45 |